DW0126 Tenino WA US current weather conditions

sailwx.info

Wind from 282 at 6 knots gusting 13

Air temperature 20.6° C
Dewpoint 9.8° C

Last reported at 2020-Aug-07 00:00 UTC.
Time now 2020-Aug-07 01:08 UTC

Location: N 46°51' W 122°51'.
View on Google Maps.

See reports from other nearby stations

  
Tides and Currents Weather Stations Pressure Air Temp Water Temp Dewpoint Dewpoint Depression Visibility Wind Speed Wind Dir Waves Ship Positions
date/time (UTC)wind fromknots sea level pressurealtimeterstation pressurevisibilityair tempwater tempwave heightnotes
2020-Aug-07 00:00 282 6 gusting 13 20.6
2020-Aug-06 23:50 270 3 gusting 11 20.0
2020-Aug-06 23:40 273 5 gusting 11 19.4
2020-Aug-06 23:30 253 4 gusting 9 19.4
2020-Aug-06 23:20 263 3 gusting 10 19.4
2020-Aug-06 23:10 263 4 gusting 10 19.4
2020-Aug-06 23:00 285 4 gusting 11 20.0
2020-Aug-06 22:50 273 5 gusting 13 20.0
2020-Aug-06 22:40 269 6 gusting 13 20.0
2020-Aug-06 22:30 248 4 gusting 12 20.0
2020-Aug-06 22:20 260 6 gusting 12 20.0
2020-Aug-06 22:10 249 5 gusting 16 20.0
2020-Aug-06 22:00 235 7 gusting 16 20.0
2020-Aug-06 21:50 250 6 gusting 16 20.6
2020-Aug-06 21:40 239 7 gusting 16 20.0
2020-Aug-06 21:30 259 6 gusting 13 20.0
2020-Aug-06 21:20 252 6 gusting 14 20.6
2020-Aug-06 21:10 251 6 gusting 14 20.0
2020-Aug-06 21:00 244 5 gusting 11 19.4
2020-Aug-06 20:50 274 5 gusting 12 20.0
2020-Aug-06 20:40 241 6 gusting 13 19.4
2020-Aug-06 20:30 242 6 gusting 13 19.4
2020-Aug-06 20:20 250 6 gusting 12 19.4
2020-Aug-06 20:10 233 5 gusting 12 19.4
2020-Aug-06 20:00 248 5 gusting 13 19.4
2020-Aug-06 19:50 249 6 gusting 13 18.9
2020-Aug-06 19:40 252 6 gusting 13 19.4
2020-Aug-06 19:30 261 6 gusting 13 19.4
2020-Aug-06 19:20 244 6 gusting 11 20.0
2020-Aug-06 19:10 245 5 gusting 13 19.4
2020-Aug-06 19:00 236 6 gusting 13 18.9
2020-Aug-06 18:50 250 6 gusting 15 18.3
2020-Aug-06 18:40 261 6 gusting 15 18.3
2020-Aug-06 18:30 241 6 gusting 13 18.3
2020-Aug-06 18:20 254 5 gusting 13 17.8
2020-Aug-06 18:10 263 7 gusting 18 17.2
2020-Aug-06 18:00 233 7 gusting 18 17.2
2020-Aug-06 17:50 257 4 gusting 15 16.7
2020-Aug-06 17:40 239 7 gusting 15 16.7
2020-Aug-06 17:30 233 6 gusting 12 16.1
2020-Aug-06 17:20 238 6 gusting 15 16.1
2020-Aug-06 17:10 229 6 gusting 15 15.6
2020-Aug-06 17:00 225 6 gusting 13 15.6
2020-Aug-06 16:50 220 6 gusting 13 15.6
2020-Aug-06 16:40 228 6 gusting 13 15.0
2020-Aug-06 16:30 226 6 gusting 13 15.0
2020-Aug-06 16:20 224 5 gusting 13 15.0
2020-Aug-06 16:10 231 5 gusting 10 15.0
2020-Aug-06 16:00 232 5 gusting 10 14.4
2020-Aug-06 15:50 229 5 gusting 10 14.4
2020-Aug-06 15:40 221 5 gusting 10 14.4
2020-Aug-06 15:30 216 3 gusting 9 14.4
2020-Aug-06 15:20 227 3 gusting 12 14.4
2020-Aug-06 15:10 229 5 gusting 12 14.4
2020-Aug-06 15:00 222 4 gusting 11 15.0
2020-Aug-06 14:50 223 4 gusting 9 15.0
2020-Aug-06 14:40 232 2 gusting 6 15.0
2020-Aug-06 14:30 258 1 gusting 5 15.0
2020-Aug-06 14:20 257 1 gusting 6 14.4
2020-Aug-06 14:10 247 2 gusting 6 14.4
2020-Aug-06 14:00 247 2 gusting 8 14.4
2020-Aug-06 13:50 238 3 gusting 8 14.4
2020-Aug-06 13:40 264 3 gusting 6 14.4
2020-Aug-06 13:30 252 2 gusting 6 14.4
2020-Aug-06 13:20 242 2 gusting 7 14.4
2020-Aug-06 13:10 208 1 gusting 7 14.4
2020-Aug-06 13:00 241 1 gusting 6 15.0
2020-Aug-06 12:50 242 1 gusting 9 15.0
2020-Aug-06 12:40 234 3 gusting 9 15.0
2020-Aug-06 12:30 236 3 gusting 9 15.0
2020-Aug-06 12:20 241 3 gusting 8 15.6
2020-Aug-06 12:10 241 3 gusting 9 15.6
2020-Aug-06 12:00 247 3 gusting 9 15.6
2020-Aug-06 11:50 243 2 gusting 8 15.6
2020-Aug-06 11:40 245 2 gusting 7 16.1
2020-Aug-06 11:30 238 3 gusting 7 16.1
2020-Aug-06 11:20 241 2 gusting 6 16.1
2020-Aug-06 11:10 236 1 gusting 6 16.1
2020-Aug-06 11:00 221 1 gusting 6 16.1
2020-Aug-06 10:50 236 0 gusting 6 16.1
2020-Aug-06 10:40 264 0 gusting 4 16.1
2020-Aug-06 10:30 194 0 gusting 5 16.1
2020-Aug-06 10:20 205 0 gusting 6 16.1
2020-Aug-06 10:10 242 1 gusting 9 16.1
2020-Aug-06 10:00 222 1 gusting 9 16.1
2020-Aug-06 09:50 175 0 gusting 5 16.7
2020-Aug-06 09:40 205 0 gusting 4 16.7
2020-Aug-06 09:30 234 1 gusting 6 16.1
2020-Aug-06 09:20 234 1 gusting 6 16.1
2020-Aug-06 09:10 227 1 gusting 6 16.1
2020-Aug-06 09:00 219 1 gusting 6 16.1
2020-Aug-06 08:50 217 1 gusting 5 16.1
2020-Aug-06 08:40 251 1 gusting 5 16.1
2020-Aug-06 08:30 257 2 gusting 6 16.1
2020-Aug-06 08:20 257 2 gusting 6 16.1
2020-Aug-06 08:10 248 2 gusting 6 16.1
2020-Aug-06 08:00 239 2 gusting 6 16.1
2020-Aug-06 07:50 240 2 gusting 7 16.7
2020-Aug-06 07:40 238 2 gusting 8 16.7
2020-Aug-06 07:30 239 3 gusting 8 16.7
2020-Aug-06 07:20 253 2 gusting 6 16.7
2020-Aug-06 07:10 251 3 gusting 6 16.7
2020-Aug-06 07:00 249 3 gusting 6 16.7
2020-Aug-06 06:50 242 2 gusting 13 16.7
2020-Aug-06 06:40 237 5 gusting 13 16.7
2020-Aug-06 06:30 228 4 gusting 10 16.7
2020-Aug-06 06:20 232 3 gusting 9 16.7
2020-Aug-06 06:10 226 3 gusting 9 16.7
2020-Aug-06 06:00 225 3 gusting 8 16.7
2020-Aug-06 05:50 215 2 gusting 7 16.7
2020-Aug-06 05:40 228 3 gusting 10 16.7
2020-Aug-06 05:30 224 4 gusting 11 16.7
2020-Aug-06 05:20 242 5 gusting 11 16.7
2020-Aug-06 05:10 234 5 gusting 11 17.2
2020-Aug-06 05:00 234 5 gusting 11 17.2
2020-Aug-06 04:50 248 4 gusting 11 17.2
2020-Aug-06 04:40 241 6 gusting 12 17.2
2020-Aug-06 04:30 247 5 gusting 13 16.7
2020-Aug-06 04:20 234 5 gusting 13 16.7
2020-Aug-06 04:10 244 5 gusting 10 16.7
2020-Aug-06 04:00 246 4 gusting 10 17.2
2020-Aug-06 03:50 238 4 gusting 10 17.2
2020-Aug-06 03:40 236 4 gusting 13 17.2
2020-Aug-06 03:30 232 6 gusting 13 17.8
2020-Aug-06 03:20 240 6 gusting 15 18.3
2020-Aug-06 03:10 241 6 gusting 15 18.9
2020-Aug-06 03:00 240 8 gusting 15 19.4
2020-Aug-06 02:50 240 7 gusting 15 20.0
2020-Aug-06 02:40 245 6 gusting 15 20.6
2020-Aug-06 02:30 243 6 gusting 13 21.1
2020-Aug-06 02:20 240 6 gusting 13 21.7
2020-Aug-06 02:10 241 6 gusting 14 21.7
2020-Aug-06 02:00 237 8 gusting 14 21.7
2020-Aug-06 01:50 238 6 gusting 14 22.2
2020-Aug-06 01:40 243 6 gusting 13 22.8
2020-Aug-06 01:30 241 6 gusting 16 22.8
2020-Aug-06 01:20 247 6 gusting 16 23.3
2020-Aug-06 01:10 231 6 gusting 12 23.9
2020-Aug-06 01:00 232 6 gusting 13 23.9
2020-Aug-06 00:50 230 6 gusting 14 24.4
2020-Aug-06 00:40 230 6 gusting 14 24.4
2020-Aug-06 00:30 235 6 gusting 13 24.4
2020-Aug-06 00:20 238 5 gusting 13 25.0
2020-Aug-06 00:10 252 6 gusting 13 25.0
2020-Aug-06 00:00 244 6 gusting 13 25.0
2020-Aug-05 23:50 248 6 gusting 13 25.0
2020-Aug-05 23:40 255 6 gusting 13 25.6
2020-Aug-05 23:30 254 6 gusting 13 25.6
2020-Aug-05 23:20 259 5 gusting 13 26.1
2020-Aug-05 23:10 248 5 gusting 14 25.6
2020-Aug-05 23:00 237 7 gusting 14 25.6
2020-Aug-05 22:50 248 6 gusting 13 25.6
2020-Aug-05 22:40 255 5 gusting 13 26.1
2020-Aug-05 22:30 234 6 gusting 13 25.6
2020-Aug-05 22:20 235 5 gusting 13 26.1
2020-Aug-05 22:10 238 6 gusting 12 25.6
2020-Aug-05 22:00 245 6 gusting 12 25.6
2020-Aug-05 21:50 237 6 gusting 12 25.6
2020-Aug-05 21:40 232 5 gusting 12 25.6
2020-Aug-05 21:30 248 5 gusting 12 25.0
2020-Aug-05 21:20 234 5 gusting 12 25.0
2020-Aug-05 21:10 253 4 gusting 12 25.0
2020-Aug-05 21:00 228 4 gusting 12 25.0
2020-Aug-05 20:50 238 4 gusting 11 24.4
2020-Aug-05 20:40 223 5 gusting 10 24.4
2020-Aug-05 20:30 226 4 gusting 9 24.4
2020-Aug-05 20:20 266 3 gusting 9 23.9
2020-Aug-05 20:10 251 3 gusting 9 23.3
2020-Aug-05 20:00 254 3 gusting 9 23.3
2020-Aug-05 19:50 234 4 gusting 9 23.3
2020-Aug-05 19:40 241 3 gusting 9 22.8
2020-Aug-05 19:30 224 5 gusting 9 22.2
2020-Aug-05 19:20 251 4 gusting 8 21.7
2020-Aug-05 19:10 253 3 gusting 11 21.7
2020-Aug-05 19:00 248 4 gusting 11 21.1
2020-Aug-05 18:50 257 3 gusting 8 21.1
2020-Aug-05 18:40 239 3 gusting 7 21.1
2020-Aug-05 18:30 267 4 gusting 8 20.6
2020-Aug-05 18:20 247 4 gusting 10 20.0
2020-Aug-05 18:10 242 4 gusting 10 20.0
2020-Aug-05 18:00 257 3 gusting 8 19.4
2020-Aug-05 17:50 258 4 gusting 7 19.4
2020-Aug-05 17:40 221 2 gusting 7 19.4
2020-Aug-05 17:30 229 3 gusting 7 18.9
2020-Aug-05 17:20 236 3 gusting 7 18.3
2020-Aug-05 17:10 241 3 gusting 7 17.8
2020-Aug-05 17:00 232 3 gusting 7 17.8
2020-Aug-05 16:50 213 3 gusting 7 17.2
2020-Aug-05 16:40 256 3 gusting 8 17.2
2020-Aug-05 16:30 236 2 gusting 9 16.7
2020-Aug-05 16:20 231 3 gusting 9 16.7
2020-Aug-05 16:10 225 4 gusting 9 16.7
2020-Aug-05 16:00 215 3 gusting 7 16.7
2020-Aug-05 15:50 235 2 gusting 7 16.1
2020-Aug-05 15:40 226 2 gusting 6 15.6
2020-Aug-05 15:30 213 1 gusting 6 15.6
2020-Aug-05 15:20 251 3 gusting 6 15.0
2020-Aug-05 15:10 244 2 gusting 6 15.0
2020-Aug-05 15:00 233 2 gusting 6 14.4
2020-Aug-05 14:50 197 2 gusting 5 14.4
2020-Aug-05 14:40 183 1 gusting 5 13.9
2020-Aug-05 14:30 180 1 gusting 4 13.9
2020-Aug-05 14:20 180 13.3
2020-Aug-05 14:10 180 13.3
2020-Aug-05 14:00 180 12.8
2020-Aug-05 13:50 180 0 gusting 3 12.8
2020-Aug-05 13:40 180 12.8
2020-Aug-05 13:30 12.8
2020-Aug-05 13:20 12.8
2020-Aug-05 13:10 180 12.8
2020-Aug-05 13:00 180 12.8
2020-Aug-05 12:50 180 12.8
2020-Aug-05 12:40 12.8
2020-Aug-05 12:30 13.3
2020-Aug-05 12:20 180 13.3
2020-Aug-05 12:10 180 13.3
2020-Aug-05 12:00 180 13.3
2020-Aug-05 11:50 13.3
2020-Aug-05 11:40 180 13.3
2020-Aug-05 11:30 180 13.3
2020-Aug-05 11:20 180 13.3
2020-Aug-05 11:10 13.9
2020-Aug-05 11:00 13.9
2020-Aug-05 10:50 13.9
2020-Aug-05 10:40 180 13.9
2020-Aug-05 10:30 13.9
2020-Aug-05 10:20 180 13.9
2020-Aug-05 10:10 180 13.9
2020-Aug-05 10:00 180 13.9
2020-Aug-05 09:50 180 14.4
2020-Aug-05 09:40 14.4
2020-Aug-05 09:30 14.4
2020-Aug-05 09:20 180 14.4
2020-Aug-05 09:10 180 14.4
2020-Aug-05 09:00 180 0 gusting 2 14.4
2020-Aug-05 08:50 180 15.0
2020-Aug-05 08:40 180 15.0
2020-Aug-05 08:30 180 15.6
2020-Aug-05 08:20 15.6
2020-Aug-05 08:10 180 15.6
2020-Aug-05 08:00 180 16.1
2020-Aug-05 07:50 180 16.1
2020-Aug-05 07:40 16.1
2020-Aug-05 07:30 180 16.1
2020-Aug-05 07:20 180 16.7
2020-Aug-05 07:10 16.7
2020-Aug-05 07:00 17.2
2020-Aug-05 06:50 17.2
2020-Aug-05 06:40 180 17.8
2020-Aug-05 06:30 180 17.8
2020-Aug-05 06:20 180 18.3
2020-Aug-05 06:10 180 18.3
2020-Aug-05 06:00 18.3
2020-Aug-05 05:50 18.9
2020-Aug-05 05:40 180 18.9
2020-Aug-05 05:30 180 19.4
2020-Aug-05 05:20 19.4
2020-Aug-05 05:10 20.0
2020-Aug-05 05:00 20.6
2020-Aug-05 04:50 21.1
2020-Aug-05 04:40 180 21.7
2020-Aug-05 04:30 21.7
2020-Aug-05 04:20 22.2
2020-Aug-05 04:10 22.8
2020-Aug-05 04:00 180 23.3
2020-Aug-05 03:50 180 0 gusting 5 23.9
2020-Aug-05 03:40 180 0 gusting 4 24.4
2020-Aug-05 03:30 180 0 gusting 4 25.0
2020-Aug-05 03:20 178 25.6
2020-Aug-05 03:10 171 26.1
2020-Aug-05 03:00 190 1 gusting 5 26.7
2020-Aug-05 02:50 032 26.7
2020-Aug-05 02:40 042 2 gusting 6 27.2
2020-Aug-05 02:30 043 2 gusting 6 27.2
2020-Aug-05 02:20 052 3 gusting 6 27.2
2020-Aug-05 02:10 056 2 gusting 8 27.2
2020-Aug-05 02:00 057 2 gusting 8 27.8
2020-Aug-05 01:50 048 2 gusting 6 27.8
2020-Aug-05 01:40 044 2 gusting 6 27.8
2020-Aug-05 01:30 056 2 gusting 9 27.8
2020-Aug-05 01:20 049 3 gusting 9 27.8
2020-Aug-05 01:10 053 3 gusting 10 27.8
2020-Aug-05 01:00 054 2 gusting 10 28.3